Stations météo

Publicité
La Hague, France (7020): Température de l'air & dewpoint: 14.09.2020 21:00:00 - 20.09.2020 21:00:00 (CEST)La Hague, France (7020): Vitesse du vent & gusts: 14.09.2020 21:00:00 - 20.09.2020 21:00:00 (CEST)La Hague, France (7020): Direction du vent: 14.09.2020 21:00:00 - 20.09.2020 21:00:00 (CEST)La Hague, France (7020): reduced air pressure: 14.09.2020 21:00:00 - 20.09.2020 21:00:00 (CEST)La Hague, France (7020): visibility: 14.09.2020 21:00:00 - 20.09.2020 21:00:00 (CEST)La Hague, France (7020): Quantités de précipitations: 14.09.2020 21:00:00 - 20.09.2020 21:00:00 (CEST)
Date & Time tt [°C] td [°C] ff [km/h] ff [knt] fx [km/h] fx [knt] dd ppp [hPa] vv [km] rr [mm]
20.09.2020 21:00:00 18,0 15,4 - - - - - 1017,2 - 0,0
20.09.2020 20:00:00 18,4 15,6 - - - - - 1016,2 12 0,0
20.09.2020 19:00:00 19,2 15,3 - - - - - 1015,9 - 0,0
20.09.2020 18:00:00 19,9 16,1 - - - - - 1015,7 - 0,0
20.09.2020 17:00:00 19,9 16,1 - - - - - 1015,6 10 0,0
20.09.2020 16:00:00 19,1 15,6 - - - - - 1015,8 - 0,0
20.09.2020 15:00:00 20,4 15,4 - - - - - 1016,1 - 0,0
20.09.2020 14:00:00 19,4 15,1 - - - - - 1016,0 10 0,0
20.09.2020 13:00:00 18,7 15,2 - - - - - 1016,3 - 0,0
20.09.2020 12:00:00 18,3 14,8 - - - - - 1016,2 - 0,0
20.09.2020 11:00:00 18,6 14,9 - - - - - 1016,1 10 0,0
20.09.2020 10:00:00 17,6 14,9 - - - - - 1015,7 - 0,0
20.09.2020 09:00:00 17,5 14,9 - - - - - 1015,1 - 0,0
20.09.2020 08:00:00 17,4 15,0 - - - - - 1014,8 12 0,0
20.09.2020 07:00:00 16,9 15,6 - - - - - 1015,0 - 0,0
20.09.2020 06:00:00 17,4 14,9 - - - - - 1014,6 - 0,0
20.09.2020 05:00:00 17,5 15,1 - - - - - 1014,7 14 0,0
20.09.2020 04:00:00 17,5 15,3 - - - - - 1014,6 - 0,0
20.09.2020 03:00:00 17,9 15,3 - - - - - 1014,6 - 0,0
20.09.2020 02:00:00 17,8 15,2 - - - - - 1014,6 12 0,0
20.09.2020 01:00:00 18,1 15,7 - - - - - 1014,7 - 0,0
20.09.2020 00:00:00 18,2 16,2 - - - - - 1014,7 - 0,0
19.09.2020 23:00:00 18,1 16,4 - - - - - 1014,4 12 0,0
19.09.2020 22:00:00 18,4 16,4 - - - - - 1014,1 - 0,0
19.09.2020 21:00:00 18,3 16,6 - - - - - 1013,7 - 0,0
19.09.2020 20:00:00 18,6 16,9 - - - - - 1013,4 10 0,0
19.09.2020 19:00:00 19,1 17,1 - - - - - 1013,0 - 0,0
19.09.2020 18:00:00 19,0 16,8 - - - - - 1012,6 - 0,0
19.09.2020 17:00:00 18,9 16,7 - - - - - 1012,5 8 0,0
19.09.2020 16:00:00 19,9 16,5 - - - - - 1012,2 - 0,0
19.09.2020 15:00:00 19,0 16,6 - - - - - 1012,2 - 0,0
19.09.2020 14:00:00 18,7 16,3 - - - - - 1012,2 7 0,0
19.09.2020 13:00:00 18,9 16,3 - - - - - 1012,1 - 0,0
19.09.2020 12:00:00 18,0 15,6 - - - - - 1012,2 - 0,0
19.09.2020 11:00:00 17,5 15,5 - - - - - 1012,5 - 2,0
19.09.2020 10:00:00 17,7 14,8 - - - - - 1013,3 - 0,0
19.09.2020 09:00:00 17,9 14,6 - - - - - 1013,6 - 0,0
19.09.2020 08:00:00 17,9 15,0 - - - - - 1013,2 9 0,0
19.09.2020 07:00:00 17,5 14,8 - - - - - 1013,3 - 0,0
19.09.2020 06:00:00 17,5 15,1 - - - - - 1013,5 - 0,0
19.09.2020 05:00:00 17,6 15,0 - - - - - 1013,8 10 0,0
19.09.2020 04:00:00 17,7 15,3 - - - - - 1014,3 - 0,0
19.09.2020 03:00:00 17,8 15,6 - - - - - 1014,9 - 0,0
19.09.2020 02:00:00 17,9 15,3 - - - - - 1015,2 12 0,0
19.09.2020 01:00:00 18,0 15,3 - - - - - 1015,6 - 0,0
19.09.2020 00:00:00 17,9 15,0 - - - - - 1016,1 - 0,0
18.09.2020 23:00:00 17,9 14,8 - - - - - 1016,4 12 0,0
18.09.2020 22:00:00 18,1 14,6 - - - - - 1016,3 - 0,0
18.09.2020 21:00:00 18,3 14,4 - - - - - 1016,4 - 0,0
18.09.2020 20:00:00 18,1 13,8 - - - - - 1016,4 8 0,0
18.09.2020 19:00:00 18,2 14,3 - - - - - 1015,7 - 0,0
18.09.2020 18:00:00 18,6 13,5 - - - - - 1015,4 - 0,0
18.09.2020 17:00:00 18,3 13,4 - - - - - 1015,5 9 0,0
18.09.2020 16:00:00 19,4 13,8 - - - - - 1016,2 - 0,0
18.09.2020 15:00:00 18,2 12,4 - - - - - 1016,8 - 0,0
18.09.2020 14:00:00 18,4 13,0 - - - - - 1017,2 10 0,0
18.09.2020 13:00:00 19,0 12,7 - - - - - 1017,6 - 0,0
18.09.2020 12:00:00 18,4 13,3 - - - - - 1017,8 - 0,0
18.09.2020 11:00:00 18,2 13,7 - - - - - 1018,5 10 0,0
18.09.2020 10:00:00 17,8 13,5 - - - - - 1018,5 - 0,0
18.09.2020 09:00:00 17,2 13,1 - - - - - 1018,2 - 0,0
18.09.2020 08:00:00 16,6 12,5 - - - - - 1017,9 9 0,0
18.09.2020 07:00:00 16,5 11,6 44 24 60 33 ENE 1018,2 - 0,0
18.09.2020 06:00:00 16,4 11,3 43 23 62 34 ENE 1019,1 - 0,0
18.09.2020 05:00:00 16,6 11,3 44 24 63 34 ENE 1019,2 9 0,0
18.09.2020 04:00:00 16,8 10,9 45 24 65 35 E 1019,7 - 0,0
18.09.2020 03:00:00 16,9 10,5 46 25 64 34 E 1020,4 - 0,0
18.09.2020 02:00:00 17,0 12,1 46 25 63 34 ENE 1020,9 9 0,0
18.09.2020 01:00:00 17,0 13,1 45 25 67 36 ENE 1021,4 - 0,0
18.09.2020 00:00:00 16,9 13,2 55 30 71 38 ENE 1021,4 - 0,0
17.09.2020 23:00:00 16,9 13,2 54 29 76 41 ENE 1022,0 12 0,0
17.09.2020 22:00:00 17,4 12,7 50 27 70 38 ENE 1022,2 - 0,0
17.09.2020 21:00:00 17,5 12,6 47 25 71 38 ENE 1021,9 - 0,0
17.09.2020 20:00:00 17,4 12,9 44 24 62 33 ENE 1022,1 8 0,0
17.09.2020 19:00:00 17,9 12,3 42 23 69 37 E 1022,3 - 0,0
17.09.2020 18:00:00 18,2 12,0 51 27 74 40 ENE 1022,5 - 0,0
17.09.2020 17:00:00 18,6 12,3 54 29 79 43 ENE 1022,8 10 0,0
17.09.2020 16:00:00 18,6 13,0 57 31 80 43 ENE 1023,0 - 0,0
17.09.2020 15:00:00 18,7 12,2 53 29 79 43 ENE 1023,4 - 0,0
17.09.2020 14:00:00 18,9 12,6 53 29 77 42 E 1023,5 6 0,0
17.09.2020 13:00:00 18,7 12,7 55 30 78 42 E 1024,0 - 0,0
17.09.2020 12:00:00 18,8 13,2 55 30 75 41 E 1024,2 - 0,0
17.09.2020 11:00:00 18,5 13,4 57 31 77 41 E 1024,4 6 0,0
17.09.2020 10:00:00 18,0 14,3 57 31 76 41 ENE 1024,3 - 0,0
17.09.2020 09:00:00 17,5 14,2 56 30 76 41 ENE 1024,1 - 0,0
17.09.2020 08:00:00 17,3 14,9 55 30 75 41 ENE 1023,8 6 0,0
17.09.2020 07:00:00 17,3 14,9 54 29 77 41 ENE 1023,5 - 0,0
17.09.2020 06:00:00 17,5 15,1 55 30 73 39 ENE 1023,6 - 0,0
17.09.2020 05:00:00 17,7 15,5 47 26 72 39 ENE 1024,0 12 0,0
17.09.2020 04:00:00 17,8 15,6 49 27 74 40 ENE 1024,3 - 0,0
17.09.2020 03:00:00 17,8 15,6 51 28 73 39 ENE 1024,6 - 0,0
17.09.2020 02:00:00 17,9 15,9 45 24 68 37 E 1024,5 12 0,0
17.09.2020 01:00:00 18,0 15,8 47 26 72 39 ENE 1024,2 - 0,0
17.09.2020 00:00:00 18,8 14,9 38 21 53 28 ENE 1024,2 - 0,0
16.09.2020 23:00:00 18,6 16,0 30 16 36 20 ENE 1023,8 12 0,0
16.09.2020 22:00:00 18,5 16,3 26 14 32 17 ENE 1023,7 - 0,0
16.09.2020 21:00:00 18,5 16,5 21 11 34 18 NE 1023,2 - 0,0
16.09.2020 20:00:00 18,8 16,9 20 11 29 16 ENE 1022,8 4,0 0,0
16.09.2020 19:00:00 19,7 16,7 22 12 34 18 E 1022,5 - 0,0
16.09.2020 18:00:00 20,6 17,4 22 12 36 19 E 1022,2 - 0,0
16.09.2020 17:00:00 20,6 17,2 27 14 35 19 E 1022,4 - 0,0
16.09.2020 16:00:00 20,0 16,8 21 12 27 14 ENE 1022,7 - 0,0
16.09.2020 15:00:00 20,1 16,5 14 8 19 10 NE 1022,6 - 0,0
16.09.2020 14:00:00 19,5 16,7 10 6 15 8 NE 1022,7 10 0,0
16.09.2020 13:00:00 20,3 16,9 10 6 13 7 NNE 1022,8 - 0,0
16.09.2020 12:00:00 19,9 16,9 8 4 13 7 N 1022,7 - 0,0
16.09.2020 11:00:00 18,5 17,2 12 6 18 10 N 1022,4 10 0,0
16.09.2020 10:00:00 18,1 17,1 13 7 16 9 N 1022,1 - 0,0
16.09.2020 09:00:00 18,0 17,0 3 2 10 5 WNW 1021,9 - 0,0
16.09.2020 08:00:00 17,7 16,9 4 2 9 5 SW 1021,4 10 0,0
16.09.2020 07:00:00 17,8 17,2 9 5 16 9 SW 1021,1 - 0,0
16.09.2020 06:00:00 17,7 17,1 5 3 11 6 SW 1020,8 - 0,0
16.09.2020 05:00:00 17,7 17,1 2 1 13 7 NNE 1020,7 10 0,0
16.09.2020 04:00:00 17,9 17,4 9 5 14 7 W 1021,0 - 0,0
16.09.2020 03:00:00 17,9 17,3 8 5 11 6 WSW 1020,8 - 0,0
16.09.2020 02:00:00 17,9 17,3 8 4 15 8 SW 1020,8 10 0,0
16.09.2020 01:00:00 17,9 17,3 10 5 12 7 SSW 1021,0 - 0,0
16.09.2020 00:00:00 18,1 17,3 9 5 16 9 W 1021,0 - 0,0
15.09.2020 23:00:00 18,1 17,1 13 7 19 11 SW 1021,1 10 0,0
15.09.2020 22:00:00 18,1 16,9 11 6 22 12 SW 1020,8 - 0,0
15.09.2020 21:00:00 18,4 16,7 18 10 26 14 SSW 1020,4 - 0,0
15.09.2020 20:00:00 18,6 16,6 16 9 26 14 SSW 1020,1 12 0,0
15.09.2020 19:00:00 19,1 15,6 18 10 31 17 SSW 1019,7 - 0,0
15.09.2020 18:00:00 20,9 13,8 2 1 8 4 NNW 1019,1 - 0,0
15.09.2020 17:00:00 20,5 14,6 5 3 10 6 ENE 1018,8 16 0,0
15.09.2020 16:00:00 20,3 14,6 5 3 9 5 NNE 1019,0 - 0,0
15.09.2020 15:00:00 20,8 14,9 6 3 12 6 NW 1019,1 - 0,0
15.09.2020 14:00:00 20,6 15,6 7 4 21 11 NW 1019,0 16 0,0
15.09.2020 13:00:00 21,0 15,1 13 7 21 11 WNW 1019,0 - 0,0
15.09.2020 12:00:00 20,7 15,3 11 6 27 14 WNW 1018,9 - 0,0
15.09.2020 11:00:00 19,5 16,3 18 10 35 19 W 1019,0 - 0,0
15.09.2020 10:00:00 19,0 17,1 26 14 37 20 WSW 1018,3 - 0,0
15.09.2020 09:00:00 18,5 16,8 29 16 42 23 SSW 1017,7 - 0,0
15.09.2020 08:00:00 18,1 16,8 21 11 31 17 SSW 1016,7 12 0,0
15.09.2020 07:00:00 15,5 13,9 5 3 7 4 SSW 1016,1 - 0,0
15.09.2020 06:00:00 17,6 15,0 3 1 13 7 S 1016,2 - 0,0
15.09.2020 05:00:00 18,9 15,9 11 6 19 10 WSW 1016,4 14 0,0
15.09.2020 04:00:00 19,0 16,0 16 9 22 12 SW 1016,5 - 0,0
15.09.2020 03:00:00 19,6 14,8 16 8 19 10 SSW 1016,5 - 0,0
15.09.2020 02:00:00 18,0 14,1 11 6 15 8 ESE 1016,4 14 0,0
15.09.2020 01:00:00 17,6 15,2 13 7 14 8 E 1016,5 - 0,0
15.09.2020 00:00:00 17,9 15,5 8 5 14 8 ENE 1016,8 - 0,0
14.09.2020 23:00:00 19,1 15,6 10 5 20 11 ESE 1016,9 14 0,0
14.09.2020 22:00:00 18,4 15,6 16 8 22 12 E 1016,7 - 0,0
14.09.2020 21:00:00 19,2 15,7 18 10 26 14 E 1016,5 - 0,0

tt = Température de l'air
td = dewpoint
ff = Vitesse du vent
fx = gusts
dd = Direction du vent
ppp = reduced air pressure
vv = visibility
rr = Quantités de précipitations

stations d'obs. à proximité